FW4341 Weather Reports


time (UTC)temp
C
wind
direction
speed
KPH
gust
KPH
rain 1hr
cm
rain 24hr
cm
rain mn
cm
humidity
%
barometer
mb
20260510011600 22 193 8.0 14.5 0.00 0.00 0.00 70 1026.2
20260510010016 22 183 8.0 16.1 0.00 0.00 0.00 72 1026.3
20260510004548 21 163 4.8 16.1 0.00 0.00 0.00 75 1026.4
20260510003010 20 169 3.2 17.7 0.00 0.00 0.00 78 1026.9
20260510001534 20 227 8.0 14.5 0.00 0.00 0.00 79 1027.1
20260510000059 20 209 4.8 14.5 0.00 0.00 0.00 78 1027.1
20260509234530 20 182 8.0 17.7 0.00 0.00 0.00 75 1027.1
20260509233048 20 181 6.4 12.9 0.00 0.00 0.00 73 1027.3
20260509231541 20 174 8.0 19.3 0.00 0.00 0.00 71 1026.9
20260509230030 20 188 9.7 19.3 0.00 0.00 0.00 71 1026.7
20260509224552 20 181 6.4 17.7 0.00 0.00 0.00 70 1026.8
20260509223027 19 158 6.4 12.9 0.00 0.00 0.00 72 1026.7
20260509221540 18 176 4.8 12.9 0.00 0.00 0.00 74 1026.5
20260509220056 17 186 6.4 12.9 0.00 0.00 0.00 75 1026.4
20260509214512 17 212 4.8 12.9 0.00 0.00 0.00 77 1026.2
20260509213032 16 179 4.8 6.4 0.00 0.00 0.00 83 1026.0
20260509211607 15 200 0.0 4.8 0.00 0.00 0.00 86 1025.9
20260509210031 15 183 0.0 3.2 0.00 0.00 0.00 86 1025.5
20260509204604 15 183 0.0 3.2 0.00 0.00 0.00 86 1025.5
20260509203040 15 127 0.0 0.0 0.00 0.00 0.00 85 1025.3
20260509201550 15 118 0.0 0.0 0.00 0.00 0.00 85 1025.2
20260509200011 15 184 0.0 4.8 0.00 0.00 0.00 86 1024.8
20260509194547 14 197 1.6 6.4 0.00 0.00 0.00 86 1024.8
20260509193006 14 186 6.4 8.0 0.00 0.00 0.00 86 1024.7
20260509191540 14 171 1.6 8.0 0.00 0.00 0.00 86 1024.7
20260509190043 14 193 1.6 4.8 0.00 0.00 0.00 86 1024.4
20260509184527 14 190 0.0 8.0 0.00 0.00 0.00 87 1024.4
20260509183022 14 192 4.8 9.7 0.00 0.00 0.00 88 1024.1
20260509181507 13 195 4.8 8.0 0.00 0.00 0.00 89 1024.0
20260509180053 13 198 4.8 8.0 0.00 0.00 0.00 90 1023.8
20260509174537 13 189 3.2 6.4 0.00 0.00 0.00 91 1023.8
20260509173001 13 195 3.2 6.4 0.00 0.00 0.00 92 1023.7
20260509171529 13 205 1.6 3.2 0.00 0.00 0.00 92 1023.7
20260509170059 13 209 0.0 6.4 0.00 0.00 0.00 92 1023.7
20260509164519 13 200 0.0 0.0 0.00 0.00 0.00 93 1023.7
20260509163018 13 193 0.0 0.0 0.00 0.00 0.00 93 1023.7
20260509161557 13 177 0.0 3.2 0.00 0.00 0.00 93 1023.8
20260509160031 12 174 0.0 1.6 0.00 0.00 0.00 93 1024.0
20260509154503 12 173 0.0 1.6 0.00 0.00 0.00 93 1023.8
20260509153025 13 169 0.0 1.6 0.00 0.00 0.00 93 1024.0
20260509151547 13 169 0.0 1.6 0.00 0.00 0.00 93 1024.1
20260509150013 12 158 0.0 3.2 0.00 0.00 0.00 93 1024.2
20260509144541 12 155 0.0 0.0 0.00 0.00 0.00 92 1024.3
20260509143003 12 155 0.0 0.0 0.00 0.00 0.00 92 1024.5
20260509141518 13 155 0.0 0.0 0.00 0.00 0.00 92 1024.6
20260509140041 13 155 0.0 0.0 0.00 0.00 0.00 92 1024.7
20260509134600 13 155 0.0 0.0 0.00 0.00 0.00 92 1024.7
20260509133037 13 155 0.0 0.0 0.00 0.00 0.00 92 1024.8
20260509131503 13 155 0.0 0.0 0.00 0.00 0.00 91 1024.8
20260509130036 13 155 0.0 0.0 0.00 0.00 0.00 91 1024.8
20260509124514 13 155 0.0 0.0 0.00 0.00 0.00 91 1024.8
20260509123047 13 155 0.0 0.0 0.00 0.00 0.00 91 1025.0
20260509121512 13 155 0.0 0.0 0.00 0.00 0.00 91 1025.0
20260509120046 13 155 0.0 0.0 0.00 0.00 0.00 90 1025.0
20260509114521 13 155 0.0 0.0 0.00 0.00 0.00 90 1024.9
20260509113052 14 155 0.0 0.0 0.00 0.00 0.00 89 1024.9
20260509111525 14 155 0.0 0.0 0.00 0.00 0.00 89 1025.0
20260509110055 14 155 0.0 0.0 0.00 0.00 0.00 89 1025.0
20260509104519 15 155 0.0 0.0 0.00 0.00 0.00 88 1024.9
20260509103051 15 155 0.0 0.0 0.00 0.00 0.00 88 1024.9
20260509101528 15 155 0.0 0.0 0.00 0.00 0.00 87 1024.8
20260509094513 15 155 0.0 0.0 0.00 0.00 0.00 86 1024.7
20260509093041 15 155 0.0 1.6 0.00 0.00 0.00 85 1024.6
20260509091535 16 155 0.0 0.0 0.00 0.00 0.00 84 1024.3
20260509090058 16 155 0.0 1.6 0.00 0.00 0.00 82 1024.2
20260509084528 17 155 0.0 0.0 0.00 0.00 0.00 81 1024.0
20260509083021 17 155 0.0 0.0 0.00 0.00 0.00 78 1023.9
20260509081547 18 155 0.0 0.0 0.00 0.00 0.00 75 1023.9
20260509080035 18 155 0.0 1.6 0.00 0.00 0.00 74 1023.6
20260509074557 19 155 0.0 3.2 0.00 0.00 0.00 71 1023.4
20260509073103 20 183 0.0 3.2 0.00 0.00 0.00 70 1023.2
20260509071503 20 193 1.6 8.0 0.00 0.00 0.00 66 1023.2
20260509070034 21 174 3.2 6.4 0.00 0.00 0.00 65 1023.1
20260509064501 21 176 3.2 9.7 0.00 0.00 0.00 63 1022.9
20260509063037 21 160 4.8 9.7 0.00 0.00 0.00 62 1022.9
20260509061504 21 176 4.8 9.7 0.00 0.00 0.00 62 1022.5
20260509060039 22 166 6.4 14.5 0.00 0.00 0.00 60 1022.4
20260509054500 22 161 6.4 14.5 0.00 0.00 0.00 60 1022.3
20260509053032 22 142 4.8 17.7 0.00 0.00 0.00 60 1022.3
20260509051602 22 173 6.4 16.1 0.00 0.00 0.00 59 1022.1
20260509050035 22 108 6.4 16.1 0.00 0.00 0.00 59 1022.1
20260509044526 22 114 4.8 19.3 0.00 0.00 0.00 60 1022.1
20260509043035 22 110 8.0 17.7 0.00 0.00 0.00 59 1022.2
20260509041509 22 174 6.4 17.7 0.00 0.00 0.00 59 1022.3
20260509040104 22 150 8.0 17.7 0.00 0.00 0.00 58 1022.1
20260509040001 22 172 8.0 17.7 0.00 0.00 0.00 58 1022.1
20260509034547 22 124 8.0 22.5 0.00 0.00 0.00 58 1022.2
20260509033040 22 113 8.0 16.1 0.00 0.00 0.00 60 1022.2
20260509031509 22 168 6.4 20.9 0.00 0.00 0.00 58 1022.2
20260509030041 22 103 8.0 16.1 0.00 0.00 0.00 58 1022.5
20260509024553 22 175 8.0 19.3 0.00 0.00 0.00 60 1022.5
20260509023040 22 112 12.9 24.1 0.00 0.00 0.00 61 1022.6
20260509021515 22 115 6.4 19.3 0.00 0.00 0.00 59 1022.8
20260509020036 23 185 6.4 19.3 0.00 0.00 0.00 58 1022.9
20260509014556 23 118 4.8 17.7 0.00 0.00 0.00 59 1023.0
20260509013037 22 103 6.4 16.1 0.00 0.00 0.00 60 1023.0